Weather in Sevastyantsevo

Russia / Yaroslavl Oblast     58°13′55″N   37°56′59″E
temp.,
°C
wind,
m/s
gust,
m/s
humid.,
%
clouds,
%
prec.,
mm/h
press.,
hPa
HPBL,
m
5 march, fri
fri500:00−10wnw339461 0.0 100129
03:00−10wnw339561 0.0 100371
06:00−9wnw3596100 0.2 1003117
09:00−8wnw3694100 0.5 1005298
12:00−7nnw5787100 0.6 1006641
15:00−7nnw478097 0.6 1008603
18:00−10wnw23848 0.0 101022
21:00−12wsw34874 0.0 101246
6 march, sat
sat600:00−11wnw489346 0.0 1013150
03:00−14nw349444 0.0 101549
06:00−16nw33944 0.0 101539
09:00−14wnw23932 0.0 101691
12:00−9w258534 0.0 1016401
15:00−7wsw368560 0.0 1014443
18:00−9sw349197 0.0 101268
21:00−11ssw588959 0.0 1010143
7 march, sun
sun700:00−8ssw6138499 0.0 1005423
03:00−6ssw8159199 0.4 1000707
06:00−5ssw81592100 0.8 995832
09:00−5ssw81390100 1.3 991830
12:00−4s71193100 1.2 988826
15:00−5nw91491100 3.4 989964
18:00−7wnw71376100 0.5 990735
21:00−11w4785100 0.5 991120
8 march, mon
mon800:00−14w348335 0.0 99140
03:00−14wnw458929 0.0 99276
06:00−12wnw5994100 0.1 992323
09:00−10nw61094100 0.5 994478
12:00−8n71090100 0.6 997726
15:00−9nnw71091100 1.0 1000824
18:00−10nnw61190100 0.3 1004617
21:00−13nnw6119198 0.3 1007487
9 march, tue
tue900:00−14nnw5109397 0.1 1009442
03:00−16nnw5109598 0.2 1011347
06:00−21nnw489773 0.0 1013179
09:00−23nnw479652 0.0 1015217
12:00−20nnw359139 0.0 1016294
15:00−17nnw358727 0.0 1016355
18:00−20n229734 0.0 101620
21:00−21nne339831 0.0 101825